{"data":{"norad_id":67512,"intl_designator":"2026-012V","name":"STARLINK-36538","alt_names":[],"object_type":"PAYLOAD","status":"ACTIVE","operator":null,"country":"US","launch_date":"2026-01-18","launch_site_code":"AFETR","launch_vehicle":null,"mission":null,"orbit_class":"UNKNOWN","rcs_meters":null,"size_class":null,"mass_kg":null,"dimensions":null,"purposes":["comms"],"wikipedia_slug":null,"has_3d_model":false,"image_url":null,"decayed_at":null,"tle_current":{"epoch":"2026-09-19T09:27:06.003072Z","epoch_age_seconds":167879,"freshness":"FRESH","line1":"1 67512U 26012V   26262.39381948  .00009354  00000+0  34896-3 0  9998","line2":"2 67512  43.0000 300.7002 0001158 272.3034  87.7685 15.27583211 37385","mean_motion":15.27583211,"eccentricity":0.0001158,"inclination_deg":43,"raan_deg":300.7002,"arg_perigee_deg":272.3034,"mean_anomaly_deg":87.7685,"bstar":0.00034896,"rev_number":3738,"period_min":94.266550563706,"perigee_km":482.24495693082,"apogee_km":483.83400540386,"semimajor_km":6861.1764811673,"source":"CELESTRAK","updated_at":"2026-09-20T09:00:43.561767Z"}}}